CZ-6A DEB, 54912

Orbit data source: Space-Track

CZ-6A DEB, 54912 is space debris in SSO originally from a launch on Fri, 11 Nov 2022 UTC launched from the Taiyaun Space Center, China (TSC). Debris objects in space refer to the collection of defunct objects orbiting the Earth. Examples of debris include non-operational satellites, rocket bodies, and fragments generated from explosions, collisions, or faulty payload assembly.

Loading next visibility...
Identifier
54912, 2022-151QZ
Orbit
SSO
Country
Flag of CNCN / PRC
Related business
Manufacturer
SAST
Mission
Spacecraft
Bus & Motor
Unknown
Mass
Unknown
Launch date (UTC)
2022-11-11 (4 years ago)
Launch vehicle
Unknown
Launch site
Taiyaun Space Center, China (TSC)
Object type
Payload
Rocket body
Debris
Shape & HBR
Unknown shape, 0.1 m
Radar Cross Section
Medium (>0.1 m² and <1 m²)

Expand to show TLE details & history
Last TLE update: 2 days ago

TLE from 2 days ago
0 CZ-6A DEB
1 54912U 22151QZ  26234.70987611  .00008280  00000-0  13783-2 0  9990
2 54912  98.7612 325.7342 0096284 105.5254 255.6603 14.67273563196392
Epoch: 2026-08-22T17:02Z
TLE epoch observation values (Epoch: 2026-08-22T17:02:13.295Z)
Latitude
-0.00014°
Longitude
99.16244°
Altitude
690.185 km
Speed
7.502 km/s
True Right ascension
21h 42m 56s
True Declination
0° 00' 00"
Sunlit
Object was in full shadow at epoch
Visualization orbit readout
Latitude
Unknown
Longitude
Unknown
Altitude
Unknown
Speed
Unknown
Apparent Right ascension
Unknown
Apparent Declination
Unknown
Sunlit
N/A
Visualization observer readout
Local Sidereal Time
00:47:23
Azimuth
Unknown
Elevation
Unknown
Doppler factor
Unknown
Orbital elements
Apogee altitude
734.716 km
Perigee altitude
599.051 km
Semi-major axis
7,045.02 km
Eccentricity
0.00963
Inclination
98.7612°
RAAN
325.7342°
Arg. of periapsis
105.5254°
True anomaly
254.59458°
Mean anomaly
255.6603°
Eccentric anomaly
255.12712°
Mean motion
3.67045 °/min
Orbital period
98.08 mins
BSTAR
0.0013783
Loading maneuver chart data...
Computing Atmospheric mass density...
Loading historical data...
Loading historical data...
Loading historical data...
Loading historical data...
Loading historical data...
Loading historical data...
Loading historical data...

Documentation

Showing up to 5 results
|